Location: Newark
(23.5328°S, 46.7919°W)
Time: 03:07:49
(UTC+00:00)

Envisat - Pass Details

Date: 12 March 2021
Orbit: 764 x 766 km, 98.1° (Epoch: 18 April)

Event Time Altitude Azimuth Distance (km) Brightness Sun altitude
Rises 08:03:04 0° 15° (NNE) 3,212 6.3 -15.5°
Reaches altitude 10° 08:05:21 10° 15° (NNE) 2,293 5.5 -15.0°
Maximum altitude 08:10:25 83° 103° (ESE) 778 3.1 -13.9°
Drops below altitude 10° 08:15:32 10° 190° (S) 2,319 5.5 -12.7°
Sets 08:17:52 0° 190° (S) 3,252 6.2 -12.2°
